This is the latest recevied weather packets stored in our database for station/object KO4APQ. If no packets are shown the sender has not sent any weather packets the latest 10 day(s).
| Time | Temp. | Humidity | Pressure | Rain* | Wind** | Luminosity | Snow |
|---|---|---|---|---|---|---|---|
| 1777868338 | 11.11° C | 62% | 1018.2 hPa | 0 mm | - | 0 W/m² | - |
| 1777868034 | 11.11° C | 58% | 1018.2 hPa | 0 mm | - | 0 W/m² | - |
| 1777867730 | 11.67° C | 57% | 1018.2 hPa | 0 mm | - | 0 W/m² | - |
| 1777867428 | 12.22° C | 55% | 1018.2 hPa | 0 mm | - | 0 W/m² | - |
| 1777867123 | 12.22° C | 54% | 1018.3 hPa | 0 mm | - | 0 W/m² | - |
| 1777866822 | 12.78° C | 54% | 1018.3 hPa | 0 mm | - | 0 W/m² | - |
| 1777866216 | 12.78° C | 54% | 1018.2 hPa | 0 mm | - | 0 W/m² | - |
| 1777865611 | 12.78° C | 53% | 1018.2 hPa | 0 mm | - | 0 W/m² | - |
| 1777863792 | 13.33° C | 50% | 1018.2 hPa | 0 mm | - | 0 W/m² | - |
| 1777863488 | 13.89° C | 50% | 1018.2 hPa | 0 mm | - | 0 W/m² | - |
| 1777847421 | 21.11° C | 33% | 1016.2 hPa | 0 mm | - | 226 W/m² | - |
| 1777846818 | 21.11° C | 33% | 1016.3 hPa | 0 mm | - | 264 W/m² | - |
| 1777845303 | 21.67° C | 28% | 1016.7 hPa | 0 mm | - | 364 W/m² | - |
| 1777845000 | 21.67° C | 30% | 1016.6 hPa | 0 mm | - | 384 W/m² | - |
| 1777844698 | 21.67° C | 30% | 1016.6 hPa | 0 mm | - | 401 W/m² | - |
| 1777844093 | 21.67° C | 28% | 1016.6 hPa | 0 mm | - | 444 W/m² | - |
| 1777841968 | 21.67° C | 26% | 1016.9 hPa | 0 mm | - | 577 W/m² | - |
| 1777840756 | 21.11° C | 27% | 1017.1 hPa | 0 mm | - | 645 W/m² | - |
| 1777840150 | 21.67° C | 28% | 1017.3 hPa | 0 mm | - | 677 W/m² | - |
| 1777839546 | 21.67° C | 28% | 1017.5 hPa | 0 mm | - | 708 W/m² | - |
| 1777838941 | 21.11° C | 30% | 1017.7 hPa | 0 mm | - | 740 W/m² | - |
| 1777838334 | 20.56° C | 30% | 1017.8 hPa | 0 mm | - | 767 W/m² | - |
| 1777837120 | 21.11° C | 30% | 1018.2 hPa | 0 mm | - | 814 W/m² | - |
| 1777835904 | 20.56° C | 29% | 1018.6 hPa | 0 mm | - | 870 W/m² | - |
| 1777835601 | 20° C | 31% | 1018.7 hPa | 0 mm | - | 879 W/m² | - |
* Rain latest hour (hover to see other rain measurements)
** Current wind speed in m/s (hover to see current wind gust speed)